Regional Weather Roundup
Issued by NWS

Home | Current Version | Previous Version | Graphics & Text | Print | Product List | Glossary On
Versions: 1 2 3 4 5 6 7 8 9 10 11 12 13 14 15 16 17 18 19 20 21 22 23 24 25 26 27 28 29 30 31 32 33 34 35 36 37 38 39 40 41 42 43 44 45 46 47 48 49 50
000
ASUS43 KLOT 241200
RWRIL

ILLINOIS REGIONAL WEATHER ROUNDUP
NATIONAL WEATHER SERVICE CHICAGO/ROMEOVILLE IL
700 AM CDT THU APR 24 2014

NOTE: "FAIR" INDICATES FEW OR NO CLOUDS BELOW 12,000 FEET WITH NO
SIGNIFICANT WEATHER AND/OR OBSTRUCTIONS TO VISIBILITY.

* THESE STATIONS ARE NOT UNDER NWS QUALITY CONTROL. THEY ALSO MAY NOT
  REPORT WEATHER SUCH AS PRECIPITATION OR FOG.

ILZ001-002-007-009-015-016-024-241300-
NORTHWEST ILLINOIS

CITY           SKY/WX    TMP DP  RH WIND       PRES   REMARKS
MOLINE         MOCLDY    46  38  73 E10       29.86F
6HR MIN TEMP:  44; 6HR MAX TEMP:  47;

STERLING*      CLOUDY    45  36  70 SE15      29.90F
$$

ILZ003-004-008-010-011-017-018-241300-
NORTH CENTRAL ILLINOIS

CITY           SKY/WX    TMP DP  RH WIND       PRES   REMARKS
ROCKFORD       CLOUDY    42  32  67 E15       29.96F
6HR MIN TEMP:  39; 6HR MAX TEMP:  42; 6HR PCP: TRACE;

$$

ILZ005-006-012>014-019>023-241300-
NORTHEAST ILLINOIS

CITY           SKY/WX    TMP DP  RH WIND       PRES   REMARKS
CHICAGO-OHARE  CLOUDY    42  33  70 E8        30.02F
6HR MIN TEMP:  39; 6HR MAX TEMP:  42; 6HR PCP:  0.03;

CHICAGO-MIDWAY CLOUDY    44  36  73 E10       30.02F
6HR MIN TEMP:  41; 6HR MAX TEMP:  44; 6HR PCP:  0.02;

AURORA         CLOUDY    45  34  65 E14       29.98F
6HR MIN TEMP:  40; 6HR MAX TEMP:  45;

WAUKEGAN       CLOUDY    39  31  72 E8        30.03F WCI  33
6HR MIN TEMP:  35; 6HR MAX TEMP:  39; 6HR PCP:  0.02;

DUPAGE AIRPORT CLOUDY    43  34  70 E12       29.99F
6HR MIN TEMP:  38; 6HR MAX TEMP:  43; 6HR PCP:  0.01;

WHEELING       CLOUDY    41  33  73 E8        30.03F
6HR MIN TEMP:  38; 6HR MAX TEMP:  41; 6HR PCP:  0.02;

NORTHERLY ISL    N/A     43  36  76 E7          N/A
$$

LMZ740>746-241300-
SOUTHERN LAKE MICHIGAN

STATION/POSITION SKY/WX   TEMP    WIND        PRES    VSBY  WAVE
                          AIR SEA DIR/SP/G                  HT/PER
                          (F)     (DEG/KT/KT) (MB)    (MI)  (FT/S)
WAUKEGAN HARBOR            38      70/ 13/ 16 1017.9F
HARRISON CRIB              40      60/ 12/ 14   N/A
BURNHAM HARBOR             43      80/  7/ 10   N/A
CALUMET HARBOR             43      90/  6/  9 1017.9F
MICHIGAN CITY              47      80/  6/  8   N/A
$$

ILZ025>027-034>036-040-047-049-050-058-095>099-241300-
WEST-CENTRAL ILLINOIS

CITY           SKY/WX    TMP DP  RH WIND       PRES   REMARKS
QUINCY         CLOUDY    52  34  50 SE18G30   29.79F
$$

ILZ028>032-037-038-041>044-048-051>054-059>061-241300-
CENTRAL ILLINOIS

CITY           SKY/WX    TMP DP  RH WIND       PRES   REMARKS
DECATUR        MOCLDY    49  36  61 E12       29.97F
PEORIA         CLOUDY    53  35  50 SE14      29.92F
6HR MIN TEMP:  50; 6HR MAX TEMP:  53;

SPRINGFIELD    PTCLDY    51  34  52 SE16      29.92F
6HR MIN TEMP:  51; 6HR MAX TEMP:  55;

TAYLORVILLE    NOT AVBL
$$

ILZ033-039-045-046-055>057-062-063-241300-
EAST-CENTRAL ILLINOIS

CITY           SKY/WX    TMP DP  RH WIND       PRES   REMARKS
CHAMPAIGN      MOCLDY    49  37  63 E13       30.00S
MATTOON        MOCLDY    50  34  54 SE10      29.98S
$$

ILZ079-100>102-241300-
SOUTHWEST ILLINOIS

CITY           SKY/WX    TMP DP  RH WIND       PRES   REMARKS
ALTON          MOCLDY    50  37  62 SE12      29.91S
BELLEVILLE     MOCLDY    50  38  63 E7        29.91S
CAHOKIA*       MOCLDY    51  37  58 SE9       29.90R
$$

ILZ064>066-069>071-074>076-080>082-084>086-088>090-092>094-241300-
SOUTH-CENTRAL ILLINOIS

CITY           SKY/WX    TMP DP  RH WIND       PRES   REMARKS
CARBONDALE     MOCLDY    52  38  58 SE6       29.94S
6HR MIN TEMP:  49; 6HR MAX TEMP:  53;

MARION         MOCLDY    54  36  50 SE12      29.96S
MT. VERNON     CLOUDY    52  30  43 E5        29.98R
$$

ILZ067-068-072-073-078-083-087-091-241300-
SOUTHEAST ILLINOIS

CITY           SKY/WX    TMP DP  RH WIND       PRES   REMARKS
$$

ABBREVIATIONS USED IN REMARKS
   TC - TEMPERATURE IN CELSIUS
  WCI - WIND CHILL INDEX
   HX - HEAT INDEX
  VSB - VISIBILITY
$$




USA.gov is the U.S. government's official web portal to all federal, state and local government web resources and services.